This is the latest recevied weather packets stored in our database for station/object WB4MOZ-3. If no packets are shown the sender has not sent any weather packets the latest 10 day(s).
| Time | Temp. | Humidity | Pressure | Rain* | Wind** | Luminosity | Snow |
|---|---|---|---|---|---|---|---|
| 1777921367 | 26.67° C | 68% | 1013 hPa | 0 mm | - | - | - |
| 1777921067 | 27.22° C | 66% | 1012.9 hPa | 0 mm | - | - | - |
| 1777920767 | 27.22° C | 63% | 1013 hPa | 0 mm | - | - | - |
| 1777920167 | 27.22° C | 65% | 1013.1 hPa | 0 mm | - | - | - |
| 1777919867 | 27.78° C | 65% | 1013.1 hPa | 0 mm | - | - | - |
| 1777919567 | 27.78° C | 64% | 1013.2 hPa | 0 mm | - | - | - |
| 1777919267 | 27.22° C | 65% | 1013.3 hPa | 0 mm | - | - | - |
| 1777918967 | 27.22° C | 71% | 1013.2 hPa | 0 mm | - | - | - |
| 1777918667 | 26.11° C | 73% | 1013.2 hPa | 0 mm | - | - | - |
| 1777918367 | 26.11° C | 75% | 1013.4 hPa | 0 mm | - | - | - |
| 1777918067 | 25.56° C | 74% | 1013.5 hPa | 0 mm | - | - | - |
| 1777917767 | 26.11° C | 73% | 1013.6 hPa | 0 mm | - | - | - |
| 1777917468 | 26.11° C | 72% | 1013.6 hPa | 0 mm | - | - | - |
| 1777917167 | 26.11° C | 72% | 1013.5 hPa | 0 mm | - | - | - |
| 1777916867 | 26.11° C | 72% | 1013.5 hPa | 0 mm | - | - | - |
| 1777916567 | 26.67° C | 71% | 1013.6 hPa | 0 mm | - | - | - |
| 1777916266 | 26.67° C | 72% | 1013.7 hPa | 0 mm | - | - | - |
| 1777915967 | 26.11° C | 72% | 1013.6 hPa | 0 mm | - | - | - |
| 1777915667 | 26.67° C | 72% | 1013.7 hPa | 0 mm | - | - | - |
| 1777915367 | 26.67° C | 72% | 1013.7 hPa | 0 mm | - | - | - |
| 1777915067 | 26.67° C | 72% | 1013.7 hPa | 0 mm | - | - | - |
| 1777914766 | 26.11° C | 74% | 1013.7 hPa | 0 mm | - | - | - |
| 1777914466 | 26.11° C | 75% | 1013.7 hPa | 0 mm | - | - | - |
| 1777914167 | 25.56° C | 76% | 1013.8 hPa | 0 mm | - | - | - |
| 1777913867 | 26.11° C | 74% | 1013.9 hPa | 0 mm | - | - | - |
* Rain latest hour (hover to see other rain measurements)
** Current wind speed in m/s (hover to see current wind gust speed)